Regional Weather Roundup
Issued by NWS Northern Indiana

Home | Current Version | Previous Version | Text Only | Print | Product List | Glossary On
Versions: 1 2 3 4 5 6 7 8 9 10 11 12 13 14 15 16 17 18 19 20 21 22 23 24 25 26 27 28 29 30 31 32 33 34 35 36 37 38 39 40 41 42 43 44 45 46 47 48 49 50
000
ASUS43 KIWX 031210
RWRIWX

KIWX WEATHER ROUNDUP
NATIONAL WEATHER SERVICE NORTHERN INDIANA
800 AM EDT TUE AUG 03 2021

NOTE: "FAIR" INDICATES FEW OR NO CLOUDS BELOW 12,000 FEET WITH NO
SIGNIFICANT WEATHER AND/OR OBSTRUCTIONS TO VISIBILITY.

* THESE STATIONS ARE NOT UNDER NWS QUALITY CONTROL. THEY ALSO MAY NOT
  REPORT WEATHER SUCH AS PRECIPITATION OR FOG.

INZ001>027-031300-
NORTHERN INDIANA

CITY           SKY/WX    TMP DP  RH WIND       PRES   REMARKS
GARY*          MOSUNNY   61  59  94 CALM      30.13R
VALPARAISO     PTSUNNY   62  59  90 CALM      30.13R
6HR MIN TEMP:  59; 6HR MAX TEMP:  62;

MICHIGAN CITY* PTSUNNY   55  54  94 CALM      30.13R
LAPORTE*       PTSUNNY   58  58  97 CALM      30.14R
6HR MIN TEMP:  54; 6HR MAX TEMP:  58;

SOUTH BEND     MOSUNNY   61  57  87 CALM      30.14R
6HR MIN TEMP:  57; 6HR MAX TEMP:  61;

ELKHART*       SUNNY     61  59  94 CALM      30.13R
GOSHEN         SUNNY     56  54  93 CALM      30.13R
6HR MIN TEMP:  54; 6HR MAX TEMP:  62;

MONTICELLO*    SUNNY     57  55  93 CALM      30.12S
6HR MIN TEMP:  52; 6HR MAX TEMP:  56;

LOGANSPORT*    SUNNY    N/A N/A N/A CALM      30.14S
ROCHESTER*     SUNNY     55  55 100 CALM      30.14R
PLYMOUTH*      CLOUDY    59  57  94 CALM      30.12S
WARSAW*        SUNNY     55  55 100 CALM      30.13S
AUBURN*        SUNNY     57  55  94 CALM      30.14R
FORT WAYNE     MOSUNNY   59  56  89 CALM      30.13S
6HR MIN TEMP:  53; 6HR MAX TEMP:  59;

HUNTINGTON*    SUNNY     56  55  95 CALM      30.13S
6HR MIN TEMP:  51; 6HR MAX TEMP:  56;

PERU/GRISSOM   SUNNY     59  55  86 CALM      30.12S
6HR MIN TEMP:  53; 6HR MAX TEMP:  59;


$$
INZ028>050-031300-
CENTRAL INDIANA

CITY           SKY/WX    TMP DP  RH WIND       PRES   REMARKS
LAFAYETTE      SUNNY     56  55  97 CALM      30.12S
6HR MIN TEMP:  53; 6HR MAX TEMP:  57;

KOKOMO*        SUNNY     59  59 100 CALM      30.14R
6HR MIN TEMP:  53; 6HR MAX TEMP:  59;

MARION*        SUNNY     55  55  99 CALM      30.14S
6HR MIN TEMP:  50; 6HR MAX TEMP:  86;

MUNCIE*        MOSUNNY   61  55  81 CALM      30.12S
6HR MIN TEMP:  54; 6HR MAX TEMP:  61;

PORTLAND*      CLOUDY    55  54  94 CALM      30.13R
INDIANAPOLIS   MOSUNNY   63  54  72 NE6       30.11R
6HR MIN TEMP:  60; 6HR MAX TEMP:  65;


$$
MIZ043>046-050>051-056>058-064>065-071>073-077>080-031300-
SOUTHWEST LOWER MICHIGAN

CITY           SKY/WX    TMP DP  RH WIND       PRES   REMARKS
BATTLE CREEK   SUNNY     58  55  90 CALM      30.14R
6HR MIN TEMP:  54; 6HR MAX TEMP:  60;

BENTON HARBOR  CLOUDY    55  52  89 CALM      30.13R
6HR MIN TEMP:  51; 6HR MAX TEMP:  55;

COLDWATER*     CLOUDY    57  56  95 CALM      30.14R
6HR MIN TEMP:  53; 6HR MAX TEMP:  57;

HILLSDALE*     CLOUDY    58  58  98 CALM      30.13S
6HR MIN TEMP:  50; 6HR MAX TEMP:  58;

HOLLAND        SUNNY     58  54  86 CALM      30.13R
6HR MIN TEMP:  52; 6HR MAX TEMP:  58;

GRAND RAPIDS   MOSUNNY   56  55  97 S3        30.13S
6HR MIN TEMP:  53; 6HR MAX TEMP:  57;

KALAMAZOO      SUNNY     59  54  83 CALM      30.14S
6HR MIN TEMP:  53; 6HR MAX TEMP:  59;

STURGIS*       SUNNY     57  56  98 CALM      30.13S
6HR MIN TEMP:  55; 6HR MAX TEMP:  62;

THREE RIVERS*  FAIR      59  55  89 CALM      30.14R
6HR MIN TEMP:  54; 6HR MAX TEMP:  59;


$$
OHZ001>008-015>018-024>025-031300-
NORTHWEST OHIO

CITY           SKY/WX    TMP DP  RH WIND       PRES   REMARKS
WAUSEON*       FAIR      59  59 100 CALM      30.12S
DEFIANCE       SUNNY     59  55  87 CALM      30.13R
6HR MIN TEMP:  54; 6HR MAX TEMP:  59;

FINDLAY        SUNNY     61  56  83 CALM      30.12R
6HR MIN TEMP:  52; 6HR MAX TEMP:  61;

OTTAWA*        FAIR      61  54  77 CALM      30.15R
TOLEDO EXPRESS SUNNY     60  55  83 CALM      30.12R
6HR MIN TEMP:  55; 6HR MAX TEMP:  62;

VAN WERT*      FAIR      55  54  94 CALM      30.13S
LIMA           SUNNY     58  55  90 CALM      30.12S
6HR MIN TEMP:  52; 6HR MAX TEMP:  58;


$$
AND FOR LAKE MICHIGAN COASTAL AND OPEN LAKE BUOY OBSERVATIONS

STATION/POSITION TEMP    WIND        PRES    VSBY  WAVE
                 AIR SEA DIR/SP/G                  HT/PER
                 (F)     (DEG/KT/KT) (MB)    (MI)  (FT/S)
CALUMET HARBOR            CALM  /  1 1019.3R
MICHIGAN CITY     64     150/  6/  6 1020.3R
BURNS HARBOR      65     170/  3/  4 1020.3R
SAINT JOSEPH      61     140/  1/  3 1021.0
SOUTH LAKE BUOY   70 71  250/  8/ 10 1019.8R         0
4 MI NW BRIDGMAN  68 73  100/  2/  4 1020.0          1
MICHIGAN CITY     69     190/  4/  6   N/A           1

$$
&&



USA.gov is the U.S. government's official web portal to all federal, state and local government web resources and services.